Location: Barruelo
(41.2448°N, 3.8231°W)
Time: 02:26:58
(UTC+00:00)

SOZ - Pass Details

Date: 21 March 2026
Orbit: 298 x 12048 km, 52.0° (Epoch: 12 April)

Event Time Altitude Azimuth Distance (km) Brightness Sun altitude
Rises 00:12:45 0° 184° (S) 17,283 12.0 -48.5°
Enters shadow 00:28:53 - 181° (S) 16,092 11.8 -48.6°
Exits shadow 01:16:50 34° 158° (SSE) 9,202 10.5 -46.8°
Maximum altitude 01:30:31 41° 129° (SE) 6,524 9.9 -45.8°
Drops below altitude 10° 01:46:44 10° 67° (ENE) 5,173 10.1 -44.4°
Sets 01:49:28 0° 60° (ENE) 5,496 10.5 -44.1°
